DW7857 Weather Reports


Display with metric or nautical units.
time (UTC)temp
F
wind
direction
speed
MPH
gust
MPH
rain 1hr
in
rain 24hr
in
rain mn
in
humidity
%
barometer
mb
20260505214713 51 40 3.0 4.0 0.00 0.00 0.00 70 1016.6
20260505213603 51 40 3.0 4.0 0.00 0.00 0.00 70 1016.7
20260505212703 51 54 3.0 4.0 0.00 0.00 0.00 70 1016.6
20260505211803 52 38 3.0 5.0 0.00 0.00 0.00 70 1016.9
20260505210903 52 85 3.0 4.0 0.00 0.00 0.00 70 1016.8
20260505210003 52 98 3.0 5.0 0.00 0.00 0.00 70 1016.8
20260505205403 52 79 3.0 5.0 0.00 0.00 0.00 70 1016.7
20260505204503 52 359 4.0 5.0 0.00 0.00 0.00 70 1016.7
20260505203603 52 19 3.0 5.0 0.00 0.00 0.00 69 1016.6
20260505202913 53 13 3.0 4.0 0.00 0.00 0.00 69 1016.7
20260505202013 53 65 3.0 4.0 0.00 0.00 0.00 68 1016.6
20260505200903 53 27 3.0 4.0 0.00 0.00 0.00 67 1016.3
20260505200003 53 68 3.0 4.0 0.00 0.00 0.00 67 1016.3
20260505195613 53 95 3.0 4.0 0.00 0.00 0.00 67 1016.4
20260505194503 54 68 4.0 5.0 0.00 0.00 0.00 66 1016.1
20260505193603 54 52 4.0 5.0 0.00 0.00 0.00 66 1016.0
20260505192913 54 53 4.0 6.0 0.00 0.00 0.00 66 1016.1
20260505191803 55 46 3.0 4.0 0.00 0.00 0.00 62 1016.0
20260505191113 55 4 3.0 4.0 0.00 0.00 0.00 62 1016.1
20260505190213 55 338 4.0 6.0 0.00 0.00 0.00 61 1015.9
20260505185612 55 327 4.0 5.0 0.00 0.00 0.00 61 1016.1
20260505184503 55 25 3.0 4.0 0.00 0.00 0.00 61 1016.0
20260505183813 55 332 4.0 7.0 0.00 0.00 0.00 61 1015.9
20260505182703 55 335 4.0 7.0 0.00 0.00 0.00 61 1015.8
20260505181803 56 317 5.0 8.0 0.00 0.00 0.00 61 1015.7
20260505180903 56 327 6.0 9.0 0.00 0.00 0.00 60 1015.8
20260505180003 57 334 6.0 9.0 0.00 0.00 0.00 56 1016.0
20260505175403 57 140 6.0 8.0 0.00 0.00 0.00 55 1015.8
20260505174504 58 319 6.0 11.0 0.00 0.00 0.00 55 1015.7
20260505173813 58 325 6.0 11.0 0.00 0.00 0.00 54 1015.8
20260505172703 58 336 8.0 11.0 0.00 0.00 0.00 52 1015.8
20260505171803 58 12 7.0 9.0 0.00 0.00 0.00 52 1016.1
20260505170903 59 54 7.0 11.0 0.00 0.00 0.00 51 1016.0
20260505170212 60 22 6.0 11.0 0.00 0.00 0.00 51 1015.7
20260505165403 60 333 7.0 11.0 0.00 0.00 0.00 51 1016.0
20260505164503 60 15 7.0 10.0 0.00 0.00 0.00 51 1015.8
20260505163603 61 19 6.0 10.0 0.00 0.00 0.00 50 1015.9
20260505162703 60 334 8.0 11.0 0.00 0.00 0.00 48 1015.8
20260505161803 60 319 7.0 9.0 0.00 0.00 0.00 50 1015.8
20260505160903 61 49 6.0 8.0 0.00 0.00 0.00 50 1015.8
20260505152703 61 25 7.0 9.0 0.00 0.00 0.00 50 1016.0
20260505152013 62 346 5.0 9.0 0.00 0.00 0.00 48 1016.0
20260505150903 61 30 5.0 8.0 0.00 0.00 0.00 50 1016.1
20260505150213 61 41 6.0 8.0 0.00 0.00 0.00 49 1016.0
20260505140213 64 47 7.0 10.0 0.00 0.00 0.00 46 1016.3
20260505124713 64 350 7.0 9.0 0.00 0.00 0.00 45 1016.6
20260505123603 64 346 6.0 9.0 0.00 0.00 0.00 46 1016.5
20260505122703 63 10 8.0 11.0 0.00 0.00 0.00 51 1016.5
20260505121803 62 34 7.0 10.0 0.00 0.00 0.00 52 1016.7
20260505120903 61 8 7.0 8.0 0.00 0.00 0.00 51 1016.7
20260505120212 62 47 7.0 10.0 0.00 0.00 0.00 53 1016.6
20260505115403 61 12 7.0 11.0 0.00 0.00 0.00 51 1016.5
20260505114503 62 9 7.0 11.0 0.00 0.00 0.00 53 1016.5
20260505113603 63 91 7.0 10.0 0.00 0.00 0.00 51 1016.6
20260505112703 63 21 8.0 10.0 0.00 0.00 0.00 52 1016.8
20260505111803 62 25 8.0 11.0 0.00 0.00 0.00 52 1016.8
20260505110903 62 349 7.0 10.0 0.00 0.00 0.00 52 1016.7
20260505101803 60 58 7.0 11.0 0.00 0.00 0.00 56 1017.1
20260505100903 59 61 7.0 9.0 0.00 0.00 0.00 56 1017.1
20260505100003 59 47 7.0 9.0 0.00 0.00 0.00 60 1017.3
20260505095403 59 11 6.0 9.0 0.00 0.00 0.00 61 1017.1
20260505094503 59 83 5.0 8.0 0.00 0.00 0.00 65 1017.1
20260505093603 57 78 5.0 8.0 0.00 0.00 0.00 68 1017.0
20260505092703 56 5 5.0 8.0 0.00 0.00 0.00 69 1017.1
20260505091803 56 71 6.0 8.0 0.00 0.00 0.00 70 1017.1
20260505090903 54 37 5.0 8.0 0.00 0.00 0.00 72 1016.9
20260505090213 54 38 4.0 6.0 0.00 0.00 0.00 74 1017.1
20260505085403 54 116 5.0 10.0 0.00 0.00 0.00 74 1017.3
20260505084503 54 33 6.0 10.0 0.00 0.00 0.00 75 1017.3
20260505083603 55 349 6.0 8.0 0.00 0.00 0.00 73 1017.0
20260505082703 54 32 6.0 9.0 0.00 0.00 0.00 76 1017.3
20260505081803 54 33 5.0 6.0 0.00 0.00 0.00 81 1017.3
20260505080903 53 25 5.0 7.0 0.00 0.00 0.00 83 1017.1
20260505080004 53 41 5.0 7.0 0.00 0.00 0.00 83 1017.2
20260505075403 53 34 5.0 5.0 0.00 0.00 0.00 84 1017.4
20260505074503 53 357 4.0 6.0 0.00 0.00 0.00 84 1017.2
20260505073603 52 37 4.0 6.0 0.00 0.00 0.00 86 1017.3
20260505072703 52 43 4.0 5.0 0.00 0.00 0.00 87 1017.3
20260505071803 52 11 4.0 5.0 0.00 0.00 0.00 89 1017.3
20260505070903 51 360 3.0 4.0 0.00 0.00 0.00 90 1017.5
20260505070003 51 5 3.0 4.0 0.00 0.00 0.00 92 1017.5
20260505065403 51 10 3.0 4.0 0.00 0.00 0.00 92 1017.3
20260505064713 51 106 3.0 4.0 0.00 0.00 0.00 94 1017.2
20260505063603 50 33 3.0 4.0 0.00 0.00 0.00 95 1017.3
20260505062703 50 45 3.0 4.0 0.00 0.00 0.00 96 1017.1
20260505061803 50 75 3.0 4.0 0.00 0.00 0.00 96 1017.3
20260505060903 49 36 3.0 4.0 0.00 0.00 0.00 96 1017.1
20260505060003 49 63 3.0 3.0 0.00 0.00 0.00 96 1017.1
20260505055403 49 70 2.0 3.0 0.00 0.00 0.00 96 1017.2
20260505054713 49 64 2.0 3.0 0.00 0.00 0.00 96 1017.1
20260505053603 49 20 2.0 4.0 0.00 0.00 0.00 95 1016.9
20260505052703 48 9 1.0 2.0 0.00 0.00 0.00 95 1017.0
20260505051803 48 35 2.0 4.0 0.00 0.00 0.00 95 1017.0
20260505050903 48 45 2.0 3.0 0.00 0.00 0.00 95 1016.8
20260505040903 49 64 1.0 2.0 0.00 0.00 0.00 93 1017.0
20260505040004 49 64 2.0 3.0 0.00 0.00 0.00 93 1016.9
20260505035403 49 51 2.0 3.0 0.00 0.00 0.00 93 1017.0
20260505034503 49 58 2.0 3.0 0.00 0.00 0.00 93 1017.1
20260505033603 49 71 2.0 3.0 0.00 0.00 0.00 93 1017.0
20260505032703 50 72 2.0 3.0 0.00 0.00 0.00 93 1017.2
20260505031803 50 60 2.0 3.0 0.00 0.00 0.00 93 1016.9
20260505030903 50 52 2.0 4.0 0.00 0.00 0.00 92 1016.8
20260505030213 50 66 3.0 4.0 0.00 0.00 0.00 92 1017.1
20260505025403 50 54 2.0 3.0 0.00 0.00 0.00 92 1017.0
20260505024503 51 60 2.0 3.0 0.00 0.00 0.00 92 1017.2
20260505023813 51 51 2.0 2.0 0.00 0.00 0.00 92 1016.8
20260505022703 51 70 1.0 2.0 0.00 0.00 0.00 92 1016.8
20260505021803 51 80 1.0 2.0 0.00 0.00 0.00 91 1017.3
20260505020903 51 52 2.0 2.0 0.00 0.00 0.00 91 1017.2
20260505020003 51 45 2.0 2.0 0.00 0.00 0.00 91 1017.5
20260505015403 52 45 1.0 2.0 0.00 0.00 0.00 91 1017.3
20260505014503 52 54 1.0 2.0 0.00 0.00 0.00 91 1017.3
20260505013813 52 67 1.0 2.0 0.00 0.00 0.00 91 1017.5
20260505012703 52 48 1.0 2.0 0.00 0.00 0.00 91 1017.5
20260505011803 52 67 1.0 2.0 0.00 0.00 0.00 91 1017.3
20260505010903 52 29 1.0 2.0 0.00 0.00 0.00 91 1017.6
20260505010003 52 35 2.0 2.0 0.00 0.00 0.00 91 1017.5
20260505005403 53 63 1.0 2.0 0.00 0.00 0.00 91 1017.5
20260505004503 53 22 2.0 3.0 0.00 0.00 0.00 92 1017.7
20260505003812 53 6 2.0 2.0 0.00 0.00 0.00 92 1017.7
20260505002914 53 315 2.0 2.0 0.00 0.00 0.00 92 1017.8
20260505001803 53 334 1.0 3.0 0.00 0.00 0.00 92 1017.6
20260505000903 53 6 1.0 2.0 0.00 0.00 0.00 92 1017.8
20260505000003 53 54 1.0 2.0 0.00 0.00 0.00 92 1018.1
20260504235613 53 48 1.0 2.0 0.00 0.00 0.00 92 1018.2
20260504234503 53 34 1.0 2.0 0.00 0.00 0.00 92 1018.1
20260504233603 53 66 2.0 3.0 0.00 0.00 0.00 91 1018.0
20260504232703 53 53 2.0 3.0 0.00 0.00 0.00 91 1018.1
20260504232013 53 19 1.0 2.0 0.00 0.00 0.00 91 1017.8
20260504230903 53 140 1.0 2.0 0.00 0.00 0.00 91 1018.1
20260504230004 53 91 1.0 2.0 0.00 0.00 0.00 91 1017.8
20260504225403 53 6 2.0 5.0 0.00 0.00 0.00 91 1017.5
20260504224503 53 327 3.0 5.0 0.00 0.00 0.00 91 1017.5
20260504223603 54 27 2.0 3.0 0.00 0.00 0.00 90 1017.8
20260504222703 54 57 3.0 4.0 0.00 0.00 0.00 90 1018.0
20260504221803 54 61 2.0 4.0 0.00 0.00 0.00 90 1017.9
20260504220903 54 44 2.0 3.0 0.00 0.00 0.00 90 1017.9
20260504220003 55 68 2.0 4.0 0.00 0.00 0.00 86 1018.0
20260504215403 55 50 2.0 4.0 0.00 0.00 0.00 86 1018.1